STARLINK-5972 (56362 NORAD) Tracking and Keplerian Element Data

This shows tracking and keplerian element data for the satellite.

Feedback or suggestion? Click here.




ElementValue
Catalog56362
NameSTARLINK-5972
Epoch Orbit181
Epoch Day127.00001157
Epoch Year2023
RAAN126.4762
Inclination97.6639
Eccentricity0.0001443
Argument of Perigee93.262
Mean Anonmoly241.3313
Mean Motion15.68323801
Decay Rate-0.00867594
L11 56362U 23058AX 23127.00001157 -.00867594 00000+0 -86009-2 0 9994
L22 56362 97.6639 126.4762 0001443 93.2620 241.3313 15.68323801 1810



Live tracking and technical data element details for STARLINK-5972 (NORAD 56362). STARLINK-5972 can be tracked NOW for your location showing map with azimuth and elevation plus other details from your city location.







IsCatalogInMostPopularTable: catalog: 56362, numindb: 24
Update: records affected: 1



GetName: 56362 STARLINK-5972

Hit Count: updated at: Wed, 07 Jun 2023 09:31:17 GMT